When you browse on this site, cookies collect data to enhance your experience and personalize the content and advertising you see.
Visit our Privacy Policy to learn more. By continuing to use the site, you agree to this use of cookies and data.
  • en France
  • Liste des pays
  • À 7 jours
  • Température de l'eau
  • Carte météo
  • Widgets météo
  • user-avatar
    Se connecter

    Météo par heure à Xiabaishi

    Ce jour, 22 Septembre, Dimanche

    Heure Température Précipitation Vent Pression Humidité
    00:00 +21°C° 0 mm 3 m/s 752 mmHg 73%
    01:00 +20°C° 0 mm 3 m/s 752 mmHg 74%
    02:00 +20°C° 0 mm 2 m/s 752 mmHg 76%
    03:00 +20°C° 0 mm 2 m/s 752 mmHg 77%
    04:00 +19°C° 0 mm 2 m/s 752 mmHg 78%
    05:00 +19°C° 0 mm 2 m/s 753 mmHg 80%
    06:00 +20°C° 0 mm 3 m/s 753 mmHg 75%
    07:00 +23°C° 0 mm 2 m/s 754 mmHg 71%
    08:00 +24°C° 0 mm 3 m/s 755 mmHg 66%
    09:00 +26°C° 0 mm 3 m/s 755 mmHg 60%
    10:00 +28°C° 0 mm 3 m/s 755 mmHg 53%
    11:00 +30°C° 0 mm 2 m/s 755 mmHg 46%
    12:00 +30°C° 0 mm 2 m/s 755 mmHg 46%
    13:00 +31°C° 0 mm 2 m/s 754 mmHg 46%
    14:00 +31°C° 0 mm 2 m/s 754 mmHg 46%
    15:00 +30°C° 0 mm 2 m/s 754 mmHg 51%
    16:00 +29°C° 0 mm 2 m/s 755 mmHg 57%
    17:00 +28°C° 0 mm 2 m/s 755 mmHg 62%
    18:00 +26°C° 0 mm 2 m/s 756 mmHg 67%
    19:00 +25°C° 0 mm 2 m/s 756 mmHg 71%
    20:00 +23°C° 0 mm 2 m/s 757 mmHg 75%
    21:00 +23°C° 0 mm 2 m/s 757 mmHg 76%
    22:00 +21°C° 0 mm 2 m/s 757 mmHg 77%
    23:00 +21°C° 0 mm 2 m/s 757 mmHg 78%

    Demain, 23 Septembre, Lundi

    Heure Température Précipitation Vent Pression Humidité
    00:00 +20°C° 0 mm 2 m/s 757 mmHg 78%
    01:00 +20°C° 0 mm 2 m/s 757 mmHg 78%
    02:00 +20°C° 0 mm 2 m/s 757 mmHg 78%
    03:00 +19°C° 0 mm 2 m/s 757 mmHg 79%
    04:00 +19°C° 0 mm 2 m/s 758 mmHg 81%
    05:00 +19°C° 0 mm 2 m/s 758 mmHg 82%
    06:00 +21°C° 0 mm 1 m/s 758 mmHg 77%
    07:00 +23°C° 0 mm 1 m/s 759 mmHg 71%
    08:00 +24°C° 0 mm 1 m/s 759 mmHg 66%
    09:00 +26°C° 0 mm 1 m/s 759 mmHg 59%
    10:00 +28°C° 0 mm 1 m/s 759 mmHg 51%
    11:00 +30°C° 0 mm 1 m/s 759 mmHg 44%
    12:00 +30°C° 0 mm 1 m/s 759 mmHg 45%
    13:00 +30°C° 0 mm 2 m/s 758 mmHg 46%
    14:00 +30°C° 0 mm 2 m/s 758 mmHg 47%
    15:00 +29°C° 0 mm 2 m/s 758 mmHg 53%
    16:00 +27°C° 0 mm 2 m/s 758 mmHg 60%
    17:00 +26°C° 0 mm 2 m/s 758 mmHg 67%
    18:00 +25°C° 0 mm 2 m/s 759 mmHg 73%
    19:00 +23°C° 0 mm 1 m/s 759 mmHg 79%
    20:00 +22°C° 0 mm 1 m/s 760 mmHg 85%
    21:00 +21°C° 0 mm 1 m/s 760 mmHg 86%
    22:00 +21°C° 0 mm 1 m/s 760 mmHg 87%
    23:00 +21°C° 0 mm 1 m/s 760 mmHg 88%

    Après-demain, 24 Septembre, Mardi

    Heure Température Précipitation Vent Pression Humidité
    00:00 +21°C° 0 mm 1 m/s 760 mmHg 89%
    01:00 +20°C° 0 mm 1 m/s 760 mmHg 90%
    02:00 +20°C° 0 mm 1 m/s 760 mmHg 92%
    03:00 +20°C° 0 mm 1 m/s 760 mmHg 92%
    04:00 +19°C° 0 mm 1 m/s 760 mmHg 92%
    05:00 +19°C° 0 mm 1 m/s 760 mmHg 93%
    06:00 +21°C° 0 mm 1 m/s 760 mmHg 85%
    07:00 +22°C° 0 mm 1 m/s 761 mmHg 78%
    08:00 +24°C° 0 mm 1 m/s 761 mmHg 71%
    09:00 +26°C° 0 mm 1 m/s 761 mmHg 62%
    10:00 +28°C° 0 mm 1 m/s 761 mmHg 54%
    11:00 +30°C° 0 mm 1 m/s 761 mmHg 46%
    12:00 +30°C° 0 mm 2 m/s 760 mmHg 47%
    13:00 +30°C° 0 mm 2 m/s 759 mmHg 48%
    14:00 +30°C° 0 mm 3 m/s 759 mmHg 50%
    15:00 +28°C° 0 mm 2 m/s 759 mmHg 57%
    16:00 +27°C° 0 mm 2 m/s 759 mmHg 64%
    17:00 +26°C° 0 mm 2 m/s 759 mmHg 72%
    18:00 +25°C° 0 mm 2 m/s 759 mmHg 78%
    19:00 +23°C° 0 mm 2 m/s 760 mmHg 84%
    20:00 +21°C° 0 mm 2 m/s 760 mmHg 90%
    21:00 +21°C° 0.1 mm 2 m/s 760 mmHg 90%
    22:00 +22°C° 0.1 mm 1 m/s 761 mmHg 90%
    23:00 +22°C° 0.1 mm 1 m/s 761 mmHg 90%

    25 Septembre, Mercredi

    Heure Température Précipitation Vent Pression Humidité
    00:00 +22°C° 0.1 mm 1 m/s 760 mmHg 92%
    01:00 +21°C° 0.1 mm 1 m/s 760 mmHg 93%
    02:00 +21°C° 0.1 mm 1 m/s 760 mmHg 94%
    03:00 +20°C° 0 mm 1 m/s 760 mmHg 94%
    04:00 +20°C° 0 mm 1 m/s 760 mmHg 94%
    05:00 +20°C° 0 mm 1 m/s 760 mmHg 94%
    06:00 +21°C° 0 mm 1 m/s 760 mmHg 90%
    07:00 +22°C° 0 mm 1 m/s 760 mmHg 85%
    08:00 +24°C° 0 mm 1 m/s 761 mmHg 81%
    09:00 +25°C° 0 mm 1 m/s 760 mmHg 71%
    10:00 +27°C° 0 mm 1 m/s 760 mmHg 62%
    11:00 +29°C° 0 mm 2 m/s 760 mmHg 52%
    12:00 +29°C° 0 mm 2 m/s 759 mmHg 52%
    13:00 +29°C° 0 mm 2 m/s 759 mmHg 52%
    14:00 +29°C° 0 mm 3 m/s 758 mmHg 53%
    15:00 +28°C° 0 mm 3 m/s 758 mmHg 59%
    16:00 +27°C° 0 mm 2 m/s 758 mmHg 65%
    17:00 +25°C° 0 mm 2 m/s 758 mmHg 71%
    18:00 +24°C° 0 mm 2 m/s 759 mmHg 76%
    19:00 +23°C° 0 mm 2 m/s 759 mmHg 81%
    20:00 +21°C° 0 mm 1 m/s 760 mmHg 87%
    21:00 +21°C° 0 mm 1 m/s 760 mmHg 87%
    22:00 +21°C° 0 mm 1 m/s 760 mmHg 88%
    23:00 +21°C° 0 mm 1 m/s 760 mmHg 89%

    26 Septembre, Jeudi

    Heure Température Précipitation Vent Pression Humidité
    00:00 +20°C° 0 mm 1 m/s 760 mmHg 90%
    01:00 +20°C° 0 mm 1 m/s 760 mmHg 91%
    02:00 +20°C° 0 mm 1 m/s 759 mmHg 92%
    03:00 +19°C° 0 mm 1 m/s 759 mmHg 93%
    04:00 +19°C° 0 mm 1 m/s 759 mmHg 93%
    05:00 +19°C° 0 mm 1 m/s 759 mmHg 93%
    06:00 +21°C° 0 mm 1 m/s 760 mmHg 86%
    07:00 +22°C° 0 mm 1 m/s 760 mmHg 79%
    08:00 +24°C° 0 mm 1 m/s 760 mmHg 72%
    09:00 +26°C° 0 mm 1 m/s 760 mmHg 63%
    10:00 +28°C° 0 mm 1 m/s 760 mmHg 55%
    11:00 +30°C° 0 mm 1 m/s 759 mmHg 46%
    12:00 +30°C° 0 mm 1 m/s 759 mmHg 47%
    13:00 +30°C° 0 mm 2 m/s 759 mmHg 48%
    14:00 +30°C° 0 mm 2 m/s 758 mmHg 49%
    15:00 +29°C° 0 mm 2 m/s 758 mmHg 56%
    16:00 +27°C° 0 mm 2 m/s 758 mmHg 64%
    17:00 +26°C° 0 mm 2 m/s 758 mmHg 72%
    18:00 +25°C° 0 mm 2 m/s 759 mmHg 77%
    19:00 +23°C° 0 mm 1 m/s 759 mmHg 82%
    20:00 +22°C° 0 mm 1 m/s 759 mmHg 87%
    21:00 +22°C° 0 mm 1 m/s 760 mmHg 87%
    22:00 +22°C° 0 mm 1 m/s 760 mmHg 88%
    23:00 +21°C° 0 mm 1 m/s 760 mmHg 89%

    27 Septembre, Vendredi

    Heure Température Précipitation Vent Pression Humidité
    00:00 +21°C° 0 mm 1 m/s 760 mmHg 88%
    01:00 +21°C° 0 mm 1 m/s 759 mmHg 87%
    02:00 +21°C° 0 mm 1 m/s 759 mmHg 86%
    03:00 +21°C° 0 mm 1 m/s 759 mmHg 86%
    04:00 +21°C° 0 mm 1 m/s 759 mmHg 85%
    05:00 +21°C° 0 mm 1 m/s 759 mmHg 85%
    06:00 +22°C° 0 mm 1 m/s 759 mmHg 79%
    07:00 +24°C° 0 mm 1 m/s 760 mmHg 74%
    08:00 +25°C° 0 mm 1 m/s 760 mmHg 68%
    09:00 +27°C° 0 mm 1 m/s 760 mmHg 62%
    10:00 +29°C° 0 mm 1 m/s 760 mmHg 56%
    11:00 +31°C° 0 mm 1 m/s 759 mmHg 50%
    12:00 +31°C° 0 mm 1 m/s 759 mmHg 51%
    13:00 +31°C° 0 mm 2 m/s 758 mmHg 51%
    14:00 +31°C° 0 mm 2 m/s 758 mmHg 52%
    15:00 +30°C° 0 mm 2 m/s 758 mmHg 58%
    16:00 +29°C° 0 mm 2 m/s 758 mmHg 65%
    17:00 +27°C° 0 mm 2 m/s 758 mmHg 71%
    18:00 +26°C° 0 mm 1 m/s 758 mmHg 77%
    19:00 +24°C° 0 mm 1 m/s 758 mmHg 83%
    20:00 +23°C° 0 mm 1 m/s 759 mmHg 88%
    21:00 +23°C° 0 mm 1 m/s 759 mmHg 89%
    22:00 +22°C° 0 mm 1 m/s 759 mmHg 90%
    23:00 +22°C° 0 mm 1 m/s 759 mmHg 90%
    Voir plus